Time,TemperatureF,DewpointF,PressureIn,WindDirection,WindDirectionDegrees,WindSpeedMPH,WindSpeedGustMPH,Humidity,HourlyPrecipIn,Conditions,Clouds,dailyrainin,SoftwareType,DateUTC
2013-07-04 00:04:00,66.0,37.5,30.62,East,86,0.0,6.0,35,0.00,,,0.00,Weather View 32 v70,2013-07-04 07:04:00,
2013-07-04 00:09:00,65.7,37.2,30.59,East,86,3.0,6.0,35,0.00,,,0.00,Weather View 32 v70,2013-07-04 07:09:00,
2013-07-04 00:14:00,65.5,37.0,30.59,East,86,3.0,6.0,35,0.00,,,0.00,Weather View 32 v70,2013-07-04 07:14:00,
2013-07-04 00:19:00,65.3,36.9,30.59,East,86,3.0,6.0,35,0.00,,,0.00,Weather View 32 v70,2013-07-04 07:19:00,
2013-07-04 00:24:00,65.1,36.7,30.59,East,86,2.0,6.0,35,0.00,,,0.00,Weather View 32 v70,2013-07-04 07:24:00,
2013-07-04 00:29:00,65.1,36.7,30.59,East,86,3.0,6.0,35,0.00,,,0.00,Weather View 32 v70,2013-07-04 07:29:00,
2013-07-04 00:34:00,64.8,36.4,30.59,East,86,0.0,6.0,35,0.00,,,0.00,Weather View 32 v70,2013-07-04 07:34:00,
2013-07-04 00:39:00,64.2,36.6,30.59,East,86,0.0,5.0,36,0.00,,,0.00,Weather View 32 v70,2013-07-04 07:39:00,
2013-07-04 00:44:00,63.5,36.0,30.59,East,86,2.0,5.0,36,0.00,,,0.00,Weather View 32 v70,2013-07-04 07:44:00,
2013-07-04 00:49:00,63.3,35.8,30.59,East,86,0.0,5.0,36,0.00,,,0.00,Weather View 32 v70,2013-07-04 07:49:00,
2013-07-04 00:54:00,63.0,35.5,30.62,East,86,0.0,5.0,36,0.00,,,0.00,Weather View 32 v70,2013-07-04 07:54:00,
2013-07-04 00:59:00,62.6,35.2,30.62,East,86,0.0,5.0,36,0.00,,,0.00,Weather View 32 v70,2013-07-04 07:59:00,
2013-07-04 01:04:00,62.2,35.6,30.62,East,86,0.0,5.0,37,0.00,,,0.00,Weather View 32 v70,2013-07-04 08:04:00,
2013-07-04 01:09:00,61.7,35.1,30.59,East,86,0.0,5.0,37,0.00,,,0.00,Weather View 32 v70,2013-07-04 08:09:00,
2013-07-04 01:14:00,61.0,35.1,30.59,East,86,0.0,4.0,38,0.00,,,0.00,Weather View 32 v70,2013-07-04 08:14:00,
2013-07-04 01:15:00,60.8,34.3,30.59,East,86,0.0,4.0,37,0.00,,,0.00,Weather View 32 v70,2013-07-04 08:15:00,
2013-07-04 01:19:00,60.6,34.8,30.59,East,86,0.0,4.0,38,0.00,,,0.00,Weather View 32 v70,2013-07-04 08:19:00,
2013-07-04 01:24:00,60.1,34.3,30.62,East,86,0.0,4.0,38,0.00,,,0.00,Weather View 32 v70,2013-07-04 08:24:00,
2013-07-04 01:29:00,59.5,33.9,30.62,East,86,0.0,4.0,38,0.00,,,0.00,Weather View 32 v70,2013-07-04 08:29:00,
2013-07-04 01:34:00,59.0,34.0,30.62,East,86,0.0,4.0,39,0.00,,,0.00,Weather View 32 v70,2013-07-04 08:34:00,
2013-07-04 01:39:00,58.8,34.5,30.62,East,86,0.0,4.0,40,0.00,,,0.00,Weather View 32 v70,2013-07-04 08:39:00,
2013-07-04 01:44:00,58.3,34.0,30.62,East,86,0.0,4.0,40,0.00,,,0.00,Weather View 32 v70,2013-07-04 08:44:00,
2013-07-04 01:49:00,57.9,33.7,30.62,East,86,0.0,0.0,40,0.00,,,0.00,Weather View 32 v70,2013-07-04 08:49:00,
2013-07-04 01:54:00,57.7,33.5,30.62,East,86,0.0,0.0,40,0.00,,,0.00,Weather View 32 v70,2013-07-04 08:54:00,
2013-07-04 01:59:00,57.4,33.2,30.62,East,86,0.0,0.0,40,0.00,,,0.00,Weather View 32 v70,2013-07-04 08:59:00,
2013-07-04 02:04:00,57.2,33.7,30.62,East,86,0.0,0.0,41,0.00,,,0.00,Weather View 32 v70,2013-07-04 09:04:00,
2013-07-04 02:09:00,56.8,33.9,30.59,East,86,0.0,0.0,42,0.00,,,0.00,Weather View 32 v70,2013-07-04 09:09:00,
2013-07-04 02:14:00,56.5,33.6,30.59,East,86,0.0,0.0,42,0.00,,,0.00,Weather View 32 v70,2013-07-04 09:14:00,
2013-07-04 02:15:00,56.3,33.5,30.59,East,86,0.0,0.0,42,0.00,,,0.00,Weather View 32 v70,2013-07-04 09:15:00,
2013-07-04 02:19:00,56.1,33.3,30.59,East,86,0.0,0.0,42,0.00,,,0.00,Weather View 32 v70,2013-07-04 09:19:00,
2013-07-04 02:24:00,55.9,33.1,30.62,East,86,0.0,0.0,42,0.00,,,0.00,Weather View 32 v70,2013-07-04 09:24:00,
2013-07-04 02:29:00,55.6,33.4,30.62,East,86,0.0,0.0,43,0.00,,,0.00,Weather View 32 v70,2013-07-04 09:29:00,
2013-07-04 02:34:00,55.2,33.1,30.62,East,86,0.0,0.0,43,0.00,,,0.00,Weather View 32 v70,2013-07-04 09:34:00,
2013-07-04 02:39:00,54.9,32.7,30.62,East,86,0.0,0.0,43,0.00,,,0.00,Weather View 32 v70,2013-07-04 09:39:00,
2013-07-04 02:44:00,54.5,32.4,30.62,East,86,0.0,0.0,43,0.00,,,0.00,Weather View 32 v70,2013-07-04 09:44:00,
2013-07-04 02:49:00,54.3,32.8,30.62,East,86,0.0,0.0,44,0.00,,,0.00,Weather View 32 v70,2013-07-04 09:49:00,
2013-07-04 02:54:00,53.8,32.3,30.62,East,86,0.0,0.0,44,0.00,,,0.00,Weather View 32 v70,2013-07-04 09:54:00,
2013-07-04 02:59:00,53.6,32.7,30.62,East,86,0.0,0.0,45,0.00,,,0.00,Weather View 32 v70,2013-07-04 09:59:00,
2013-07-04 03:04:00,53.6,32.7,30.62,East,86,0.0,0.0,45,0.00,,,0.00,Weather View 32 v70,2013-07-04 10:04:00,
2013-07-04 03:09:00,53.4,33.1,30.62,East,86,0.0,0.0,46,0.00,,,0.00,Weather View 32 v70,2013-07-04 10:09:00,
2013-07-04 03:14:00,53.1,32.8,30.62,East,86,0.0,0.0,46,0.00,,,0.00,Weather View 32 v70,2013-07-04 10:14:00,
2013-07-04 03:15:00,53.1,32.8,30.62,East,86,0.0,0.0,46,0.00,,,0.00,Weather View 32 v70,2013-07-04 10:15:00,
2013-07-04 03:19:00,53.1,32.8,30.62,East,86,0.0,0.0,46,0.00,,,0.00,Weather View 32 v70,2013-07-04 10:19:00,
2013-07-04 03:24:00,52.7,32.5,30.62,East,86,0.0,0.0,46,0.00,,,0.00,Weather View 32 v70,2013-07-04 10:24:00,
2013-07-04 03:29:00,52.3,32.1,30.62,East,86,0.0,0.0,46,0.00,,,0.00,Weather View 32 v70,2013-07-04 10:29:00,
2013-07-04 03:34:00,52.2,32.0,30.62,East,86,0.0,0.0,46,0.00,,,0.00,Weather View 32 v70,2013-07-04 10:34:00,
2013-07-04 03:39:00,52.0,31.8,30.59,East,86,0.0,0.0,46,0.00,,,0.00,Weather View 32 v70,2013-07-04 10:39:00,
2013-07-04 03:44:00,51.8,32.2,30.59,East,86,0.0,0.0,47,0.00,,,0.00,Weather View 32 v70,2013-07-04 10:44:00,
2013-07-04 03:49:00,51.6,32.0,30.59,East,86,0.0,0.0,47,0.00,,,0.00,Weather View 32 v70,2013-07-04 10:49:00,
2013-07-04 03:54:00,51.3,31.7,30.59,East,86,0.0,0.0,47,0.00,,,0.00,Weather View 32 v70,2013-07-04 10:54:00,
2013-07-04 03:59:00,50.9,31.9,30.59,East,86,0.0,0.0,48,0.00,,,0.00,Weather View 32 v70,2013-07-04 10:59:00,
2013-07-04 04:04:00,50.9,31.4,30.59,East,86,0.0,0.0,47,0.00,,,0.00,Weather View 32 v70,2013-07-04 11:04:00,
2013-07-04 04:09:00,50.5,31.5,30.59,East,86,0.0,0.0,48,0.00,,,0.00,Weather View 32 v70,2013-07-04 11:09:00,
2013-07-04 04:14:00,50.4,31.4,30.59,East,86,0.0,0.0,48,0.00,,,0.00,Weather View 32 v70,2013-07-04 11:14:00,
2013-07-04 04:15:00,50.4,31.4,30.59,East,86,0.0,0.0,48,0.00,,,0.00,Weather View 32 v70,2013-07-04 11:15:00,
2013-07-04 04:19:00,50.4,31.9,30.59,East,86,0.0,0.0,49,0.00,,,0.00,Weather View 32 v70,2013-07-04 11:19:00,
2013-07-04 04:24:00,50.2,31.7,30.59,East,86,0.0,0.0,49,0.00,,,0.00,Weather View 32 v70,2013-07-04 11:24:00,
2013-07-04 04:30:00,50.2,31.7,30.59,East,86,0.0,0.0,49,0.00,,,0.00,Weather View 32 v70,2013-07-04 11:30:00,
2013-07-04 04:35:00,50.0,31.6,30.59,East,86,0.0,0.0,49,0.00,,,0.00,Weather View 32 v70,2013-07-04 11:35:00,
2013-07-04 04:40:00,49.8,31.4,30.59,East,86,0.0,0.0,49,0.00,,,0.00,Weather View 32 v70,2013-07-04 11:40:00,
2013-07-04 04:45:00,49.5,31.6,30.59,East,86,0.0,0.0,50,0.00,,,0.00,Weather View 32 v70,2013-07-04 11:45:00,
2013-07-04 04:50:00,49.5,31.6,30.59,East,86,0.0,0.0,50,0.00,,,0.00,Weather View 32 v70,2013-07-04 11:50:00,
2013-07-04 04:55:00,49.3,31.4,30.62,East,86,0.0,0.0,50,0.00,,,0.00,Weather View 32 v70,2013-07-04 11:55:00,
2013-07-04 05:00:00,49.1,31.2,30.62,East,86,0.0,0.0,50,0.00,,,0.00,Weather View 32 v70,2013-07-04 12:00:00,
2013-07-04 05:05:00,48.9,31.1,30.62,East,86,0.0,0.0,50,0.00,,,0.00,Weather View 32 v70,2013-07-04 12:05:00,
2013-07-04 05:10:00,48.7,30.9,30.62,East,86,0.0,0.0,50,0.00,,,0.00,Weather View 32 v70,2013-07-04 12:10:00,
2013-07-04 05:15:00,48.7,31.4,30.62,East,86,0.0,0.0,51,0.00,,,0.00,Weather View 32 v70,2013-07-04 12:15:00,
2013-07-04 05:20:00,48.6,31.2,30.62,East,86,0.0,0.0,51,0.00,,,0.00,Weather View 32 v70,2013-07-04 12:20:00,
2013-07-04 05:25:00,48.4,31.1,30.62,East,86,0.0,0.0,51,0.00,,,0.00,Weather View 32 v70,2013-07-04 12:25:00,
2013-07-04 05:30:00,48.4,31.1,30.62,East,86,0.0,0.0,51,0.00,,,0.00,Weather View 32 v70,2013-07-04 12:30:00,
2013-07-04 05:35:00,48.2,30.9,30.62,East,86,0.0,0.0,51,0.00,,,0.00,Weather View 32 v70,2013-07-04 12:35:00,
2013-07-04 05:40:00,48.0,31.2,30.62,East,86,0.0,0.0,52,0.00,,,0.00,Weather View 32 v70,2013-07-04 12:40:00,
2013-07-04 05:45:00,48.0,31.2,30.62,East,86,0.0,0.0,52,0.00,,,0.00,Weather View 32 v70,2013-07-04 12:45:00,
2013-07-04 05:50:00,47.8,31.0,30.62,East,86,0.0,0.0,52,0.00,,,0.00,Weather View 32 v70,2013-07-04 12:50:00,
2013-07-04 05:55:00,47.8,32.0,30.62,East,86,0.0,0.0,54,0.00,,,0.00,Weather View 32 v70,2013-07-04 12:55:00,
2013-07-04 06:00:00,48.0,32.1,30.62,East,86,3.0,4.0,54,0.00,,,0.00,Weather View 32 v70,2013-07-04 13:00:00,
2013-07-04 06:05:00,48.0,32.6,30.59,East,86,0.0,4.0,55,0.00,,,0.00,Weather View 32 v70,2013-07-04 13:05:00,
2013-07-04 06:10:00,48.4,32.9,30.59,East,86,0.0,4.0,55,0.00,,,0.00,Weather View 32 v70,2013-07-04 13:10:00,
2013-07-04 06:15:00,48.9,33.4,30.59,East,86,0.0,4.0,55,0.00,,,0.00,Weather View 32 v70,2013-07-04 13:15:00,
2013-07-04 06:20:00,49.5,33.0,30.59,East,86,0.0,4.0,53,0.00,,,0.00,Weather View 32 v70,2013-07-04 13:20:00,
2013-07-04 06:25:00,50.4,33.4,30.62,East,86,0.0,4.0,52,0.00,,,0.00,Weather View 32 v70,2013-07-04 13:25:00,
2013-07-04 06:30:00,51.1,34.0,30.62,East,86,0.0,4.0,52,0.00,,,0.00,Weather View 32 v70,2013-07-04 13:30:00,
2013-07-04 06:35:00,52.0,34.4,30.62,East,86,0.0,4.0,51,0.00,,,0.00,Weather View 32 v70,2013-07-04 13:35:00,
2013-07-04 06:40:00,53.1,34.9,30.62,East,86,0.0,4.0,50,0.00,,,0.00,Weather View 32 v70,2013-07-04 13:40:00,
2013-07-04 06:45:00,54.3,35.5,30.62,East,86,0.0,4.0,49,0.00,,,0.00,Weather View 32 v70,2013-07-04 13:45:00,
2013-07-04 06:50:00,55.8,36.3,30.62,East,86,0.0,4.0,48,0.00,,,0.00,Weather View 32 v70,2013-07-04 13:50:00,
2013-07-04 06:55:00,58.1,36.8,30.62,East,86,0.0,4.0,45,0.00,,,0.00,Weather View 32 v70,2013-07-04 13:55:00,
2013-07-04 07:00:00,59.5,37.6,30.62,East,86,0.0,3.0,44,0.00,,,0.00,Weather View 32 v70,2013-07-04 14:00:00,
2013-07-04 07:05:00,60.6,37.3,30.62,East,86,0.0,0.0,42,0.00,,,0.00,Weather View 32 v70,2013-07-04 14:05:00,
2013-07-04 07:10:00,61.5,36.9,30.62,East,86,0.0,0.0,40,0.00,,,0.00,Weather View 32 v70,2013-07-04 14:10:00,
2013-07-04 07:15:00,62.2,37.6,30.62,East,86,0.0,0.0,40,0.00,,,0.00,Weather View 32 v70,2013-07-04 14:15:00,
2013-07-04 07:20:00,62.6,36.6,30.62,East,86,3.0,4.0,38,0.00,,,0.00,Weather View 32 v70,2013-07-04 14:20:00,
2013-07-04 07:25:00,63.1,36.4,30.62,East,85,0.0,4.0,37,0.00,,,0.00,Weather View 32 v70,2013-07-04 14:25:00,
2013-07-04 07:30:00,63.7,36.2,30.62,East,86,0.0,4.0,36,0.00,,,0.00,Weather View 32 v70,2013-07-04 14:30:00,
2013-07-04 07:35:00,64.2,35.9,30.62,East,85,3.0,4.0,35,0.00,,,0.00,Weather View 32 v70,2013-07-04 14:35:00,
2013-07-04 07:40:00,64.6,36.2,30.62,East,85,0.0,4.0,35,0.00,,,0.00,Weather View 32 v70,2013-07-04 14:40:00,
2013-07-04 07:45:00,64.9,36.6,30.62,East,85,2.0,4.0,35,0.00,,,0.00,Weather View 32 v70,2013-07-04 14:45:00,
2013-07-04 07:50:00,65.5,37.0,30.62,East,85,3.0,4.0,35,0.00,,,0.00,Weather View 32 v70,2013-07-04 14:50:00,
2013-07-04 07:55:00,65.7,37.2,30.65,North,353,0.0,5.0,35,0.00,,,0.00,Weather View 32 v70,2013-07-04 14:55:00,
2013-07-04 08:00:00,66.4,37.1,30.65,WNW,300,3.0,5.0,34,0.00,,,0.00,Weather View 32 v70,2013-07-04 15:00:00,
2013-07-04 08:05:00,66.9,37.6,30.62,ENE,57,3.0,5.0,34,0.00,,,0.00,Weather View 32 v70,2013-07-04 15:05:00,
2013-07-04 08:10:00,67.5,38.0,30.62,ENE,57,0.0,5.0,34,0.00,,,0.00,Weather View 32 v70,2013-07-04 15:10:00,
2013-07-04 08:15:00,68.2,37.9,30.62,ENE,57,0.0,5.0,33,0.00,,,0.00,Weather View 32 v70,2013-07-04 15:15:00,
2013-07-04 08:20:00,70.3,39.8,30.62,ENE,57,0.0,5.0,33,0.00,,,0.00,Weather View 32 v70,2013-07-04 15:20:00,
2013-07-04 08:25:00,71.1,40.4,30.65,NNW,339,0.0,6.0,33,0.00,,,0.00,Weather View 32 v70,2013-07-04 15:25:00,
2013-07-04 08:30:00,70.5,40.0,30.65,NNW,339,0.0,6.0,33,0.00,,,0.00,Weather View 32 v70,2013-07-04 15:30:00,
2013-07-04 08:35:00,71.4,40.7,30.62,NNW,339,3.0,6.0,33,0.00,,,0.00,Weather View 32 v70,2013-07-04 15:35:00,
2013-07-04 08:40:00,72.5,40.9,30.62,NNE,26,5.0,6.0,32,0.00,,,0.00,Weather View 32 v70,2013-07-04 15:40:00,
2013-07-04 08:45:00,73.6,41.8,30.62,NE,45,3.0,6.0,32,0.00,,,0.00,Weather View 32 v70,2013-07-04 15:45:00,
2013-07-04 08:50:00,72.9,41.2,30.62,West,279,4.0,6.0,32,0.00,,,0.00,Weather View 32 v70,2013-07-04 15:50:00,
2013-07-04 08:56:00,71.6,40.1,30.62,West,269,0.0,6.0,32,0.00,,,0.00,Weather View 32 v70,2013-07-04 15:56:00,
2013-07-04 09:01:00,71.4,39.9,30.62,WSW,255,5.0,6.0,32,0.00,,,0.00,Weather View 32 v70,2013-07-04 16:01:00,
2013-07-04 09:06:00,72.7,41.0,30.62,West,273,4.0,6.0,32,0.00,,,0.00,Weather View 32 v70,2013-07-04 16:06:00,
2013-07-04 09:11:00,74.8,42.1,30.62,NW,307,3.0,6.0,31,0.00,,,0.00,Weather View 32 v70,2013-07-04 16:11:00,
2013-07-04 09:15:00,75.7,42.9,30.62,NNE,16,5.0,6.0,31,0.00,,,0.00,Weather View 32 v70,2013-07-04 16:15:00,
2013-07-04 09:16:00,75.6,42.7,30.62,NE,56,3.0,6.0,31,0.00,,,0.00,Weather View 32 v70,2013-07-04 16:16:00,
2013-07-04 09:21:00,74.8,42.1,30.62,ENE,58,4.0,6.0,31,0.00,,,0.00,Weather View 32 v70,2013-07-04 16:21:00,
2013-07-04 09:26:00,73.2,41.5,30.62,North,357,4.0,6.0,32,0.00,,,0.00,Weather View 32 v70,2013-07-04 16:26:00,
2013-07-04 09:31:00,72.9,41.2,30.62,North,7,4.0,8.0,32,0.00,,,0.00,Weather View 32 v70,2013-07-04 16:31:00,
2013-07-04 09:36:00,72.5,40.9,30.62,NE,41,3.0,8.0,32,0.00,,,0.00,Weather View 32 v70,2013-07-04 16:36:00,
2013-07-04 09:41:00,72.9,41.2,30.62,NNW,344,6.0,10.0,32,0.00,,,0.00,Weather View 32 v70,2013-07-04 16:41:00,
2013-07-04 09:46:00,73.6,41.0,30.62,North,0,4.0,10.0,31,0.00,,,0.00,Weather View 32 v70,2013-07-04 16:46:00,
2013-07-04 09:51:00,73.9,41.3,30.62,NNE,28,5.0,13.0,31,0.00,,,0.00,Weather View 32 v70,2013-07-04 16:51:00,
2013-07-04 09:56:00,75.0,42.2,30.62,NNW,339,4.0,13.0,31,0.00,,,0.00,Weather View 32 v70,2013-07-04 16:56:00,
2013-07-04 10:01:00,75.7,42.9,30.62,NNE,21,6.0,13.0,31,0.00,,,0.00,Weather View 32 v70,2013-07-04 17:01:00,
2013-07-04 10:06:00,76.5,43.5,30.62,ENE,68,5.0,13.0,31,0.00,,,0.00,Weather View 32 v70,2013-07-04 17:06:00,
2013-07-04 10:11:00,77.9,44.7,30.62,ENE,78,6.0,13.0,31,0.00,,,0.00,Weather View 32 v70,2013-07-04 17:11:00,
2013-07-04 10:16:00,79.0,44.8,30.62,NNE,33,6.0,13.0,30,0.00,,,0.00,Weather View 32 v70,2013-07-04 17:16:00,
2013-07-04 10:21:00,79.0,44.8,30.62,NE,43,5.0,13.0,30,0.00,,,0.00,Weather View 32 v70,2013-07-04 17:21:00,
2013-07-04 10:26:00,77.2,44.1,30.62,East,80,11.0,13.0,31,0.00,,,0.00,Weather View 32 v70,2013-07-04 17:26:00,
2013-07-04 10:31:00,76.8,43.8,30.62,NNE,13,6.0,13.0,31,0.00,,,0.00,Weather View 32 v70,2013-07-04 17:31:00,
2013-07-04 10:36:00,76.6,43.7,30.62,ENE,78,6.0,13.0,31,0.00,,,0.00,Weather View 32 v70,2013-07-04 17:36:00,
2013-07-04 10:41:00,76.5,43.5,30.62,ENE,65,9.0,13.0,31,0.00,,,0.00,Weather View 32 v70,2013-07-04 17:41:00,
2013-07-04 10:46:00,75.6,42.7,30.62,East,88,5.0,13.0,31,0.00,,,0.00,Weather View 32 v70,2013-07-04 17:46:00,
2013-07-04 10:51:00,75.4,42.6,30.59,ENE,77,8.0,12.0,31,0.00,,,0.00,Weather View 32 v70,2013-07-04 17:51:00,
2013-07-04 10:56:00,75.6,42.7,30.59,ESE,103,9.0,12.0,31,0.00,,,0.00,Weather View 32 v70,2013-07-04 17:56:00,
2013-07-04 11:01:00,75.7,42.9,30.59,East,95,6.0,12.0,31,0.00,,,0.00,Weather View 32 v70,2013-07-04 18:01:00,
2013-07-04 11:06:00,76.1,43.2,30.59,ENE,63,8.0,12.0,31,0.00,,,0.00,Weather View 32 v70,2013-07-04 18:06:00,
2013-07-04 11:11:00,75.7,42.9,30.59,ENE,72,8.0,12.0,31,0.00,,,0.00,Weather View 32 v70,2013-07-04 18:11:00,
2013-07-04 11:16:00,75.6,42.7,30.59,ENE,58,6.0,12.0,31,0.00,,,0.00,Weather View 32 v70,2013-07-04 18:16:00,
2013-07-04 11:21:00,75.6,42.7,30.59,ENE,63,8.0,12.0,31,0.00,,,0.00,Weather View 32 v70,2013-07-04 18:21:00,
2013-07-04 11:26:00,75.4,42.6,30.59,ENE,57,6.0,12.0,31,0.00,,,0.00,Weather View 32 v70,2013-07-04 18:26:00,
2013-07-04 11:31:00,75.9,43.0,30.59,ENE,61,9.0,12.0,31,0.00,,,0.00,Weather View 32 v70,2013-07-04 18:31:00,
2013-07-04 11:36:00,77.5,44.4,30.59,NE,50,6.0,12.0,31,0.00,,,0.00,Weather View 32 v70,2013-07-04 18:36:00,
2013-07-04 11:41:00,78.4,45.2,30.59,NNE,18,14.0,14.0,31,0.00,,,0.00,Weather View 32 v70,2013-07-04 18:41:00,
2013-07-04 11:46:00,78.1,44.9,30.59,NE,54,3.0,14.0,31,0.00,,,0.00,Weather View 32 v70,2013-07-04 18:46:00,
2013-07-04 11:51:00,77.9,44.7,30.59,NE,51,6.0,14.0,31,0.00,,,0.00,Weather View 32 v70,2013-07-04 18:51:00,
2013-07-04 11:56:00,80.2,45.9,30.59,NE,39,4.0,14.0,30,0.00,,,0.00,Weather View 32 v70,2013-07-04 18:56:00,
2013-07-04 12:01:00,81.7,47.1,30.59,SW,222,3.0,14.0,30,0.00,,,0.00,Weather View 32 v70,2013-07-04 19:01:00,
2013-07-04 12:06:00,81.1,46.7,30.59,ENE,68,4.0,14.0,30,0.00,,,0.00,Weather View 32 v70,2013-07-04 19:06:00,
2013-07-04 12:11:00,81.1,46.7,30.59,NE,54,4.0,14.0,30,0.00,,,0.00,Weather View 32 v70,2013-07-04 19:11:00,
2013-07-04 12:16:00,80.2,45.9,30.59,NE,40,5.0,14.0,30,0.00,,,0.00,Weather View 32 v70,2013-07-04 19:16:00,
2013-07-04 12:21:00,79.3,45.1,30.59,NE,46,8.0,14.0,30,0.00,,,0.00,Weather View 32 v70,2013-07-04 19:21:00,
2013-07-04 12:26:00,79.9,45.6,30.59,ENE,63,8.0,14.0,30,0.00,,,0.00,Weather View 32 v70,2013-07-04 19:26:00,
2013-07-04 12:31:00,80.8,46.4,30.59,ENE,65,4.0,14.0,30,0.00,,,0.00,Weather View 32 v70,2013-07-04 19:31:00,
2013-07-04 12:36:00,81.3,46.8,30.59,ENE,57,5.0,14.0,30,0.00,,,0.00,Weather View 32 v70,2013-07-04 19:36:00,
2013-07-04 12:41:00,81.0,46.5,30.59,SE,141,4.0,14.0,30,0.00,,,0.00,Weather View 32 v70,2013-07-04 19:41:00,
2013-07-04 12:46:00,80.4,46.0,30.59,NE,48,5.0,11.0,30,0.00,,,0.00,Weather View 32 v70,2013-07-04 19:46:00,
2013-07-04 12:51:00,80.4,46.0,30.59,North,0,4.0,11.0,30,0.00,,,0.00,Weather View 32 v70,2013-07-04 19:51:00,
2013-07-04 12:56:00,80.8,46.4,30.59,SW,222,4.0,11.0,30,0.00,,,0.00,Weather View 32 v70,2013-07-04 19:56:00,
2013-07-04 13:01:00,81.0,46.5,30.59,SW,221,4.0,11.0,30,0.00,,,0.00,Weather View 32 v70,2013-07-04 20:01:00,
2013-07-04 13:06:00,80.6,46.2,30.59,SW,221,3.0,11.0,30,0.00,,,0.00,Weather View 32 v70,2013-07-04 20:06:00,
2013-07-04 13:11:00,80.6,46.2,30.59,SE,142,2.0,11.0,30,0.00,,,0.00,Weather View 32 v70,2013-07-04 20:11:00,
2013-07-04 13:16:00,81.3,46.8,30.59,ENE,72,4.0,11.0,30,0.00,,,0.00,Weather View 32 v70,2013-07-04 20:16:00,
2013-07-04 13:21:00,81.3,46.8,30.59,ESE,106,6.0,15.0,30,0.00,,,0.00,Weather View 32 v70,2013-07-04 20:21:00,
2013-07-04 13:26:00,81.0,46.5,30.59,ENE,70,4.0,15.0,30,0.00,,,0.00,Weather View 32 v70,2013-07-04 20:26:00,
2013-07-04 13:31:00,81.0,46.5,30.59,SSE,157,5.0,15.0,30,0.00,,,0.00,Weather View 32 v70,2013-07-04 20:31:00,
2013-07-04 13:36:00,81.0,46.5,30.56,NE,52,8.0,15.0,30,0.00,,,0.00,Weather View 32 v70,2013-07-04 20:36:00,
2013-07-04 13:41:00,82.0,47.4,30.56,ESE,104,5.0,15.0,30,0.00,,,0.00,Weather View 32 v70,2013-07-04 20:41:00,
2013-07-04 13:46:00,81.9,47.3,30.56,East,86,3.0,15.0,30,0.00,,,0.00,Weather View 32 v70,2013-07-04 20:46:00,
2013-07-04 13:51:00,82.4,46.9,30.56,NNE,26,6.0,15.0,29,0.00,,,0.00,Weather View 32 v70,2013-07-04 20:51:00,
2013-07-04 13:57:00,82.0,47.4,30.56,NE,36,5.0,15.0,30,0.00,,,0.00,Weather View 32 v70,2013-07-04 20:57:00,
2013-07-04 14:02:00,82.6,47.0,30.56,NW,306,5.0,15.0,29,0.00,,,0.00,Weather View 32 v70,2013-07-04 21:02:00,
2013-07-04 14:07:00,83.3,47.6,30.56,SSE,157,5.0,15.0,29,0.00,,,0.00,Weather View 32 v70,2013-07-04 21:07:00,
2013-07-04 14:12:00,82.8,47.2,30.56,SE,144,6.0,15.0,29,0.00,,,0.00,Weather View 32 v70,2013-07-04 21:12:00,
2013-07-04 14:17:00,82.4,46.9,30.56,SE,144,9.0,15.0,29,0.00,,,0.00,Weather View 32 v70,2013-07-04 21:17:00,
2013-07-04 14:22:00,82.4,46.9,30.56,NE,48,3.0,11.0,29,0.00,,,0.00,Weather View 32 v70,2013-07-04 21:22:00,
2013-07-04 14:27:00,82.8,47.2,30.56,NNE,23,8.0,15.0,29,0.00,,,0.00,Weather View 32 v70,2013-07-04 21:27:00,
2013-07-04 14:32:00,83.3,47.6,30.56,ENE,57,5.0,15.0,29,0.00,,,0.00,Weather View 32 v70,2013-07-04 21:32:00,
2013-07-04 14:37:00,83.8,48.1,30.53,ENE,66,5.0,15.0,29,0.00,,,0.00,Weather View 32 v70,2013-07-04 21:37:00,
2013-07-04 14:42:00,84.0,48.2,30.53,NNE,20,16.0,16.0,29,0.00,,,0.00,Weather View 32 v70,2013-07-04 21:42:00,
2013-07-04 14:47:00,83.5,47.8,30.53,NE,50,8.0,17.0,29,0.00,,,0.00,Weather View 32 v70,2013-07-04 21:47:00,
2013-07-04 14:52:00,84.0,48.2,30.53,NE,56,8.0,17.0,29,0.00,,,0.00,Weather View 32 v70,2013-07-04 21:52:00,
2013-07-04 14:57:00,84.4,48.5,30.53,NE,44,6.0,17.0,29,0.00,,,0.00,Weather View 32 v70,2013-07-04 21:57:00,
2013-07-04 15:02:00,84.0,48.2,30.53,ESE,115,3.0,17.0,29,0.00,,,0.00,Weather View 32 v70,2013-07-04 22:02:00,
2013-07-04 15:07:00,83.8,48.1,30.53,NE,54,4.0,17.0,29,0.00,,,0.00,Weather View 32 v70,2013-07-04 22:07:00,
2013-07-04 15:12:00,83.8,48.1,30.53,NE,47,8.0,17.0,29,0.00,,,0.00,Weather View 32 v70,2013-07-04 22:12:00,
2013-07-04 15:17:00,84.4,48.5,30.53,ENE,61,3.0,17.0,29,0.00,,,0.00,Weather View 32 v70,2013-07-04 22:17:00,
2013-07-04 15:22:00,84.7,48.9,30.53,ESE,117,7.0,17.0,29,0.00,,,0.00,Weather View 32 v70,2013-07-04 22:22:00,
2013-07-04 15:27:00,84.6,48.7,30.53,NE,43,5.0,17.0,29,0.00,,,0.00,Weather View 32 v70,2013-07-04 22:27:00,
2013-07-04 15:32:00,84.6,48.7,30.53,ESE,105,8.0,17.0,29,0.00,,,0.00,Weather View 32 v70,2013-07-04 22:32:00,
2013-07-04 15:37:00,83.8,48.1,30.53,ENE,75,6.0,17.0,29,0.00,,,0.00,Weather View 32 v70,2013-07-04 22:37:00,
2013-07-04 15:42:00,84.0,48.2,30.53,NE,52,4.0,17.0,29,0.00,,,0.00,Weather View 32 v70,2013-07-04 22:42:00,
2013-07-04 15:47:00,84.2,48.4,30.53,ESE,118,5.0,15.0,29,0.00,,,0.00,Weather View 32 v70,2013-07-04 22:47:00,
2013-07-04 15:52:00,84.4,48.5,30.53,ENE,65,8.0,15.0,29,0.00,,,0.00,Weather View 32 v70,2013-07-04 22:52:00,
2013-07-04 15:57:00,84.0,48.2,30.53,ENE,73,9.0,13.0,29,0.00,,,0.00,Weather View 32 v70,2013-07-04 22:57:00,
2013-07-04 16:02:00,83.7,47.9,30.53,ESE,111,6.0,13.0,29,0.00,,,0.00,Weather View 32 v70,2013-07-04 23:02:00,
2013-07-04 16:07:00,84.2,48.4,30.53,East,83,6.0,13.0,29,0.00,,,0.00,Weather View 32 v70,2013-07-04 23:07:00,
2013-07-04 16:12:00,84.7,48.9,30.53,East,91,8.0,14.0,29,0.00,,,0.00,Weather View 32 v70,2013-07-04 23:12:00,
2013-07-04 16:17:00,85.1,49.2,30.53,ESE,117,4.0,14.0,29,0.00,,,0.00,Weather View 32 v70,2013-07-04 23:17:00,
2013-07-04 16:22:00,86.7,50.6,30.53,NE,56,6.0,14.0,29,0.00,,,0.00,Weather View 32 v70,2013-07-04 23:22:00,
2013-07-04 16:27:00,84.9,49.0,30.53,East,81,6.0,14.0,29,0.00,,,0.00,Weather View 32 v70,2013-07-04 23:27:00,
2013-07-04 16:32:00,84.4,48.5,30.53,SE,137,15.0,15.0,29,0.00,,,0.00,Weather View 32 v70,2013-07-04 23:32:00,
2013-07-04 16:37:00,83.3,47.6,30.50,East,88,3.0,15.0,29,0.00,,,0.00,Weather View 32 v70,2013-07-04 23:37:00,
2013-07-04 16:42:00,83.1,47.5,30.50,East,83,15.0,15.0,29,0.00,,,0.00,Weather View 32 v70,2013-07-04 23:42:00,
2013-07-04 16:47:00,82.9,47.3,30.50,ESE,117,8.0,15.0,29,0.00,,,0.00,Weather View 32 v70,2013-07-04 23:47:00,
2013-07-04 16:52:00,83.1,47.5,30.50,ENE,77,12.0,15.0,29,0.00,,,0.00,Weather View 32 v70,2013-07-04 23:52:00,
2013-07-04 16:57:00,82.6,47.0,30.50,ESE,103,6.0,15.0,29,0.00,,,0.00,Weather View 32 v70,2013-07-04 23:57:00,
2013-07-04 17:02:00,82.6,47.0,30.50,SE,138,6.0,15.0,29,0.00,,,0.00,Weather View 32 v70,2013-07-05 00:02:00,
2013-07-04 17:07:00,83.3,47.6,30.50,ESE,120,5.0,15.0,29,0.00,,,0.00,Weather View 32 v70,2013-07-05 00:07:00,
2013-07-04 17:12:00,84.2,48.4,30.50,ESE,116,6.0,15.0,29,0.00,,,0.00,Weather View 32 v70,2013-07-05 00:12:00,
2013-07-04 17:17:00,84.6,48.7,30.50,East,101,4.0,16.0,29,0.00,,,0.00,Weather View 32 v70,2013-07-05 00:17:00,
2013-07-04 17:22:00,86.9,50.7,30.50,ENE,68,10.0,16.0,29,0.00,,,0.00,Weather View 32 v70,2013-07-05 00:22:00,
2013-07-04 17:27:00,88.0,50.7,30.50,ENE,60,6.0,16.0,28,0.00,,,0.00,Weather View 32 v70,2013-07-05 00:27:00,
2013-07-04 17:32:00,87.6,51.3,30.50,SE,135,6.0,16.0,29,0.00,,,0.00,Weather View 32 v70,2013-07-05 00:32:00,
2013-07-04 17:37:00,87.8,50.5,30.50,ESE,110,5.0,16.0,28,0.00,,,0.00,Weather View 32 v70,2013-07-05 00:37:00,
2013-07-04 17:42:00,88.9,51.4,30.50,ENE,72,6.0,16.0,28,0.00,,,0.00,Weather View 32 v70,2013-07-05 00:42:00,
2013-07-04 17:47:00,87.1,50.9,30.50,East,84,6.0,16.0,29,0.00,,,0.00,Weather View 32 v70,2013-07-05 00:47:00,
2013-07-04 17:52:00,85.3,49.3,30.50,SE,124,11.0,16.0,29,0.00,,,0.00,Weather View 32 v70,2013-07-05 00:52:00,
2013-07-04 17:57:00,84.0,48.2,30.50,East,83,8.0,16.0,29,0.00,,,0.00,Weather View 32 v70,2013-07-05 00:57:00,
2013-07-04 18:02:00,82.4,46.9,30.50,SE,139,6.0,16.0,29,0.00,,,0.00,Weather View 32 v70,2013-07-05 01:02:00,
2013-07-04 18:07:00,81.1,46.7,30.50,East,96,11.0,16.0,30,0.00,,,0.00,Weather View 32 v70,2013-07-05 01:07:00,
2013-07-04 18:12:00,80.8,46.4,30.50,ESE,108,4.0,16.0,30,0.00,,,0.00,Weather View 32 v70,2013-07-05 01:12:00,
2013-07-04 18:17:00,80.6,46.2,30.50,East,100,8.0,15.0,30,0.00,,,0.00,Weather View 32 v70,2013-07-05 01:17:00,
2013-07-04 18:22:00,80.1,45.7,30.50,NE,54,3.0,15.0,30,0.00,,,0.00,Weather View 32 v70,2013-07-05 01:22:00,
2013-07-04 18:27:00,80.2,45.9,30.50,ESE,110,6.0,15.0,30,0.00,,,0.00,Weather View 32 v70,2013-07-05 01:27:00,
2013-07-04 18:32:00,80.1,45.7,30.50,ENE,68,6.0,15.0,30,0.00,,,0.00,Weather View 32 v70,2013-07-05 01:32:00,
2013-07-04 18:37:00,80.2,45.9,30.53,ENE,77,9.0,15.0,30,0.00,,,0.00,Weather View 32 v70,2013-07-05 01:37:00,
2013-07-04 18:42:00,79.7,45.4,30.53,ENE,72,11.0,15.0,30,0.00,,,0.00,Weather View 32 v70,2013-07-05 01:42:00,
2013-07-04 18:47:00,79.2,45.0,30.53,East,83,8.0,15.0,30,0.00,,,0.00,Weather View 32 v70,2013-07-05 01:47:00,
2013-07-04 18:52:00,80.4,46.0,30.50,ENE,68,9.0,15.0,30,0.00,,,0.00,Weather View 32 v70,2013-07-05 01:52:00,
2013-07-04 18:57:00,82.2,47.6,30.50,NE,44,8.0,15.0,30,0.00,,,0.00,Weather View 32 v70,2013-07-05 01:57:00,
2013-07-04 19:02:00,82.8,47.2,30.50,ENE,63,4.0,15.0,29,0.00,,,0.00,Weather View 32 v70,2013-07-05 02:02:00,
2013-07-04 19:07:00,79.5,45.3,30.50,NNE,26,13.0,15.0,30,0.00,,,0.00,Weather View 32 v70,2013-07-05 02:07:00,
2013-07-04 19:12:00,77.9,44.7,30.50,NE,41,8.0,13.0,31,0.00,,,0.00,Weather View 32 v70,2013-07-05 02:12:00,
2013-07-04 19:17:00,76.8,43.8,30.50,East,90,8.0,13.0,31,0.00,,,0.00,Weather View 32 v70,2013-07-05 02:17:00,
2013-07-04 19:22:00,76.3,43.3,30.50,NNE,32,8.0,13.0,31,0.00,,,0.00,Weather View 32 v70,2013-07-05 02:22:00,
2013-07-04 19:27:00,75.4,42.6,30.50,ESE,104,8.0,13.0,31,0.00,,,0.00,Weather View 32 v70,2013-07-05 02:27:00,
2013-07-04 19:32:00,75.0,42.2,30.50,ENE,64,4.0,13.0,31,0.00,,,0.00,Weather View 32 v70,2013-07-05 02:32:00,
2013-07-04 19:37:00,74.7,41.9,30.50,NE,56,6.0,13.0,31,0.00,,,0.00,Weather View 32 v70,2013-07-05 02:37:00,
2013-07-04 19:42:00,74.1,41.5,30.50,NE,55,9.0,15.0,31,0.00,,,0.00,Weather View 32 v70,2013-07-05 02:42:00,
2013-07-04 19:47:00,73.9,41.3,30.50,NE,42,8.0,15.0,31,0.00,,,0.00,Weather View 32 v70,2013-07-05 02:47:00,
2013-07-04 19:52:00,73.6,41.0,30.53,NE,52,8.0,15.0,31,0.00,,,0.00,Weather View 32 v70,2013-07-05 02:52:00,
2013-07-04 19:57:00,73.0,41.4,30.53,ENE,72,9.0,15.0,32,0.00,,,0.00,Weather View 32 v70,2013-07-05 02:57:00,
2013-07-04 20:03:00,72.7,41.0,30.53,ENE,72,6.0,15.0,32,0.00,,,0.00,Weather View 32 v70,2013-07-05 03:03:00,
2013-07-04 20:08:00,72.5,40.9,30.53,NE,37,3.0,15.0,32,0.00,,,0.00,Weather View 32 v70,2013-07-05 03:08:00,
2013-07-04 20:13:00,72.1,40.6,30.53,East,100,5.0,15.0,32,0.00,,,0.00,Weather View 32 v70,2013-07-05 03:13:00,
2013-07-04 20:18:00,71.6,40.1,30.53,ENE,63,6.0,15.0,32,0.00,,,0.00,Weather View 32 v70,2013-07-05 03:18:00,
2013-07-04 20:22:00,71.2,39.8,30.53,NE,49,6.0,15.0,32,0.00,,,0.00,Weather View 32 v70,2013-07-05 03:22:00,
2013-07-04 20:28:00,70.7,39.3,30.53,ENE,65,4.0,15.0,32,0.00,,,0.00,Weather View 32 v70,2013-07-05 03:28:00,
2013-07-04 20:33:00,70.3,39.0,30.53,NE,49,5.0,15.0,32,0.00,,,0.00,Weather View 32 v70,2013-07-05 03:33:00,
2013-07-04 20:38:00,69.8,38.5,30.53,ENE,61,8.0,15.0,32,0.00,,,0.00,Weather View 32 v70,2013-07-05 03:38:00,
2013-07-04 20:43:00,69.6,39.2,30.53,ENE,72,8.0,14.0,33,0.00,,,0.00,Weather View 32 v70,2013-07-05 03:43:00,
2013-07-04 20:48:00,69.3,38.9,30.53,East,81,9.0,14.0,33,0.00,,,0.00,Weather View 32 v70,2013-07-05 03:48:00,
2013-07-04 20:53:00,68.9,38.5,30.53,East,86,13.0,14.0,33,0.00,,,0.00,Weather View 32 v70,2013-07-05 03:53:00,
2013-07-04 20:58:00,68.4,38.1,30.53,ENE,72,4.0,14.0,33,0.00,,,0.00,Weather View 32 v70,2013-07-05 03:58:00,
2013-07-04 21:01:00,68.2,37.9,30.53,ESE,113,5.0,14.0,33,0.00,,,0.00,Weather View 32 v70,2013-07-05 04:01:00,
2013-07-04 21:06:00,67.8,38.4,30.53,ENE,59,4.0,14.0,34,0.00,,,0.00,Weather View 32 v70,2013-07-05 04:06:00,
2013-07-04 21:11:00,67.5,38.0,30.53,East,100,3.0,14.0,34,0.00,,,0.00,Weather View 32 v70,2013-07-05 04:11:00,
2013-07-04 21:15:00,67.3,37.9,30.53,East,85,5.0,14.0,34,0.00,,,0.00,Weather View 32 v70,2013-07-05 04:15:00,
2013-07-04 21:20:00,67.1,37.7,30.53,East,91,5.0,14.0,34,0.00,,,0.00,Weather View 32 v70,2013-07-05 04:20:00,
2013-07-04 21:25:00,66.7,37.4,30.53,ENE,73,4.0,14.0,34,0.00,,,0.00,Weather View 32 v70,2013-07-05 04:25:00,
2013-07-04 21:27:00,66.6,37.3,30.53,ENE,74,5.0,14.0,34,0.00,,,0.00,Weather View 32 v70,2013-07-05 04:27:00,
2013-07-04 21:30:00,66.4,37.1,30.53,ENE,65,5.0,14.0,34,0.00,,,0.00,Weather View 32 v70,2013-07-05 04:30:00,
2013-07-04 21:35:00,66.2,36.9,30.53,ENE,75,8.0,14.0,34,0.00,,,0.00,Weather View 32 v70,2013-07-05 04:35:00,
2013-07-04 21:40:00,65.8,37.4,30.53,ESE,121,6.0,14.0,35,0.00,,,0.00,Weather View 32 v70,2013-07-05 04:40:00,
2013-07-04 21:45:00,65.7,37.2,30.53,East,82,6.0,13.0,35,0.00,,,0.00,Weather View 32 v70,2013-07-05 04:45:00,
2013-07-04 21:50:00,65.5,37.0,30.53,ENE,75,6.0,13.0,35,0.00,,,0.00,Weather View 32 v70,2013-07-05 04:50:00,
2013-07-04 21:55:00,65.1,36.7,30.56,East,87,8.0,11.0,35,0.00,,,0.00,Weather View 32 v70,2013-07-05 04:55:00,
2013-07-04 21:57:00,65.1,36.7,30.56,ESE,119,3.0,11.0,35,0.00,,,0.00,Weather View 32 v70,2013-07-05 04:57:00,
2013-07-04 22:02:00,64.9,36.6,30.56,East,90,3.0,11.0,35,0.00,,,0.00,Weather View 32 v70,2013-07-05 05:02:00,
2013-07-04 22:07:00,64.6,36.2,30.56,East,96,4.0,11.0,35,0.00,,,0.00,Weather View 32 v70,2013-07-05 05:07:00,
2013-07-04 22:12:00,64.2,36.6,30.56,ESE,120,4.0,11.0,36,0.00,,,0.00,Weather View 32 v70,2013-07-05 05:12:00,
2013-07-04 22:17:00,64.0,36.5,30.56,ESE,113,3.0,11.0,36,0.00,,,0.00,Weather View 32 v70,2013-07-05 05:17:00,
2013-07-04 22:22:00,63.9,37.0,30.56,East,89,3.0,10.0,37,0.00,,,0.00,Weather View 32 v70,2013-07-05 05:22:00,
2013-07-04 22:27:00,63.3,36.5,30.56,SE,136,3.0,9.0,37,0.00,,,0.00,Weather View 32 v70,2013-07-05 05:27:00,
2013-07-04 22:32:00,63.1,36.4,30.56,ENE,75,0.0,8.0,37,0.00,,,0.00,Weather View 32 v70,2013-07-05 05:32:00,
2013-07-04 22:37:00,63.0,36.2,30.56,ENE,75,3.0,8.0,37,0.00,,,0.00,Weather View 32 v70,2013-07-05 05:37:00,
2013-07-04 22:42:00,62.6,35.2,30.56,ENE,75,4.0,8.0,36,0.00,,,0.00,Weather View 32 v70,2013-07-05 05:42:00,
2013-07-04 22:48:00,62.2,34.9,30.56,ESE,112,4.0,8.0,36,0.00,,,0.00,Weather View 32 v70,2013-07-05 05:48:00,
2013-07-04 22:53:00,61.9,34.6,30.56,ESE,112,4.0,8.0,36,0.00,,,0.00,Weather View 32 v70,2013-07-05 05:53:00,
2013-07-04 22:58:00,61.5,34.3,30.56,SE,126,4.0,8.0,36,0.00,,,0.00,Weather View 32 v70,2013-07-05 05:58:00,
2013-07-04 23:03:00,61.3,34.1,30.56,ESE,115,0.0,8.0,36,0.00,,,0.00,Weather View 32 v70,2013-07-05 06:03:00,
2013-07-04 23:08:00,61.0,33.8,30.56,ESE,115,3.0,8.0,36,0.00,,,0.00,Weather View 32 v70,2013-07-05 06:08:00,
2013-07-04 23:13:00,60.8,34.3,30.56,ESE,120,0.0,8.0,37,0.00,,,0.00,Weather View 32 v70,2013-07-05 06:13:00,
2013-07-04 23:18:00,60.4,34.0,30.56,SE,125,4.0,8.0,37,0.00,,,0.00,Weather View 32 v70,2013-07-05 06:18:00,
2013-07-04 23:23:00,60.3,33.8,30.56,SE,125,0.0,8.0,37,0.00,,,0.00,Weather View 32 v70,2013-07-05 06:23:00,
2013-07-04 23:28:00,59.9,33.5,30.56,SE,125,0.0,8.0,37,0.00,,,0.00,Weather View 32 v70,2013-07-05 06:28:00,
2013-07-04 23:33:00,59.5,33.2,30.56,SE,125,0.0,8.0,37,0.00,,,0.00,Weather View 32 v70,2013-07-05 06:33:00,
2013-07-04 23:38:00,59.2,32.9,30.56,SE,125,0.0,8.0,37,0.00,,,0.00,Weather View 32 v70,2013-07-05 06:38:00,
2013-07-04 23:43:00,58.8,33.2,30.56,SE,125,0.0,8.0,38,0.00,,,0.00,Weather View 32 v70,2013-07-05 06:43:00,
2013-07-04 23:48:00,57.9,32.4,30.56,SE,125,0.0,8.0,38,0.00,,,0.00,Weather View 32 v70,2013-07-05 06:48:00,
2013-07-04 23:53:00,57.4,32.6,30.56,SE,125,0.0,8.0,39,0.00,,,0.00,Weather View 32 v70,2013-07-05 06:53:00,
2013-07-04 23:58:00,57.2,31.8,30.56,SE,125,0.0,8.0,38,0.00,,,0.00,Weather View 32 v70,2013-07-05 06:58:00,